www.pogodaiklimat.ru

Погода и климат >> Архив погоды >> Вьетнам >> Баккан


ПОГОДА в Баккане

  • Прогноз погоды в Баккане
  • Монитор погоды в Баккане

АРХИВ ПОГОДЫ в Баккане

Время (UTC), дата Ветер
(напр.,м/с)
 
Видим.   Явления Облачность Т
(С)
Тd
(С)
f
(%)
Тe
(С)
Тes
(С)
Комфортность P
(гПа)
Po
(гПа)
Тmin
(С)
Tmax
(С)
R
(мм)
R24
(мм)
S
(см)
18 18.06 штиль 0 20 км 4/4 300 м
[Cu Sc]
+27.0 +25.8 93 +40 +40 очень
душно
1006.2 986.3
00 19.06 штиль 0 10 км 10/10 300 м
[Cu Sc]
+26.9 +25.7 93 +40 +40 очень
душно
1006.4 986.4 +26.2
06 19.06 Ю 2 20 км 6/5 300 м
[Cu med, cong Ci fib]
+32.8 +25.2 64 +47 +57 опасность
перегрева
1004.3 984.7
12 19.06 Ю 1 20 км 9/9 300 м
[Cu Sc]
+31.4 +26.2 74 +47 +47 опасность
перегрева
1002.8 983.2 +33.9
18 19.06 штиль 0 20 км {гроза} 8/8 300 м
[Cu Sc]
+28.0 +26.3 91 +43 +43 опасность
перегрева
1005.3 985.4
00 20.06 штиль 0 20 км 10/10 300 м
[Cu Sc]
+27.3 +26.0 93 +41 +41 опасность
перегрева
1006.1 986.2 +26.7
06 20.06 Ю 2 20 км 4/4 300 м
[Cu med, cong]
+33.8 +26.0 64 +50 +62 опасность
перегрева
1003.6 984.1
12 20.06 штиль 0 20 км 3/3 300 м
[Cu hum Ci fib]
+31.7 +27.3 78 +50 +50 опасность
перегрева
1001.8 982.3 +34.7
18 20.06 штиль 0 20 км 8/8 300 м
[Cu Sc]
+29.1 +26.3 85 +44 +44 опасность
перегрева
1003.4 983.7
00 21.06 штиль 0 20 км 8/8 300 м
[Cu Sc]
+27.9 +26.6 93 +43 +44 опасность
перегрева
1004.2 984.3 +26.8
06 21.06 штиль 0 20 км 4/4 300 м
[Cu med, cong]
+34.4 +25.7 61 +50 +66 опасность
перегрева
1002.0 982.5
12 21.06 штиль 0 20 км 4/3 300 м
[Cu hum Ci fib]
+33.2 +27.8 73 +53 +53 опасность
перегрева
1000.0 980.6 +35.4
18 21.06 штиль 0 20 км ясно +29.2 +26.2 84 +44 +44 опасность
перегрева
1003.0 983.3
00 22.06 штиль 0 20 км 9/9 300 м
[Cu Sc]
+28.1 +26.8 93 +44 +44 опасность
перегрева
1004.1 984.2 +27.5
06 22.06 ЮВ 3 20 км 5/4 300 м
[Cu med, cong Ci fib]
+35.1 +26.7 62 +52 +63 опасность
перегрева
999.6 980.3
12 22.06 штиль 0 20 км 8/8 300 м
[Cu Sc]
+33.5 +28.0 73 +54 +54 опасность
перегрева
998.9 979.5 +35.8
18 22.06 штиль 0 20 км зарница 9/9 300 м
[Cb calv]
+29.8 +26.1 81 +45 +45 опасность
перегрева
1000.8 981.2
00 23.06 штиль 0 20 км 10/10 300 м
[Cu Sc]
+28.6 +27.0 91 +45 +45 опасность
перегрева
1003.1 983.2 +28.2
06 23.06 СВ 3 20 км 10/10 300 м
[Cu Sc]
+30.3 +24.1 69 +42 +42 опасность
перегрева
1003.4 983.7
12 23.06 штиль 0 20 км 10/10 300 м
[Cu Sc]
+28.8 +25.1 80 +42 +42 опасность
перегрева
1003.4 983.5 +32.0
18 23.06 штиль 0 20 км {гроза, ливн. осадки} 8/8 300 м
[Cu Sc]
+26.8 +24.6 88 +38 +38 очень
душно
1005.3 985.3 0.2
00 24.06 штиль 0 10 км в посл. час дождь {ливн. осадки} 10/10
[Cb cap]
+24.6 +24.3 98 +34 +34 очень
душно
1006.9 986.8 +23.8 47
06 24.06 штиль 0 20 км {ливн. осадки, дождь} 10/10 300 м
[Cu Sc]
+26.9 +24.1 85 +37 +37 очень
душно
1005.6 985.6 10
12 24.06 штиль 0 20 км 8/8
[Cu Sc]
+27.1 +24.8 87 +39 +39 очень
душно
1003.2 983.3 +28.3 10
18 24.06 штиль 0 4000 м дымка 10/10 300 м
[Cu Sc]
+26.1 +25.2 95 +38 +38 очень
душно
1006.1 986.1
00 25.06 штиль 0 4000 м дымка {дождь} 10/10
[Cu Sc]
+26.0 +25.4 97 +38 +38 очень
душно
1006.9 986.9 +25.5 0.2
06 25.06 штиль 0 20 км 8/4 300 м
[Cu med, cong Ac trans]
+32.8 +26.1 68 +49 +59 опасность
перегрева
1003.8 984.2 0.2
12 25.06 штиль 0 20 км 8/3
[Cu med, cong Cs]
+30.8 +26.4 77 +47 +47 опасность
перегрева
1002.4 982.7 +33.9 0.2

 

Местоположение метеостанции Баккан (Вьетнам): широта 22.15 долгота 105.83 высота над уровнем моря 176 м.

В архиве по умолчанию представлена погода в Баккане за последнюю неделю. Архивные данные за месяц целиком и за предыдущие месяцы, начиная с января 2011 года, Вы можете получить, выбрав интересующий диапазон дат из раскрывающегося списка и нажав кнопку "Ввод!".


*Определитесь, кто Вы:
робот инопланетянин человек

Внимание! Время в таблицах - всемирное. Для получения местного времени необходимо прибавить поправку, которая равна 7 ч.

Смотрите также архив погоды в соседних городах и на ближайших метеорологических станциях:

Погода в Каобанге (Вьетнам) (72 км)
Погода в Лончжоу (Гуанси-Чжуанский автономный район, Китай) (98 км)
Погода в Лангсоне (Вьетнам) (102 км)
Погода в Ханое (Вьетнам) (125 км)
Погода в Напо (Гуанси-Чжуанский автономный район, Китай) (129 км)
Погода в Хайфоне (Вьетнам) (131 км)
Погода в Пхульене (Вьетнам) (171 км)
Погода в Намдине (Вьетнам) (194 км)
Погода в Лаокае (Вьетнам) (196 км)
Погода в Шапе (Вьетнам) (207 км)

Пояснения к столбцам:

Ветер - указаны скорость ветра в м/с - средняя за 10 мин, порывы в срок и между сроками (в фигурных скобках) и направление, откуда дует ветер: С - северный, СВ - северо-восточный, В - восточный, ЮВ - юго-восточный, Ю - южный, ЮЗ - юго-западный, З - западный, СЗ - северо-западный.
Видимость - горизонтальная дальность видимости в метрах или километрах. При видимости от 1 до 10 км при отсутствии осадков обычно наблюдается дымка, при ухудшении видимости до 1 км и менее - туман. В сухую погоду видимость может ухудшаться дымом, пылью или мглою.
Явления - указаны атмосферные явления, наблюдавшиеся в срок или в последний час перед сроком; фигурными скобками обозначены явления, наблюдавшиеся между сроками (за 1-3 часа до срока); квадратными скобками обозначены град или гололедные отложения с указанием их диаметра в мм.
Облачность - указаны через наклонную черту общая и нижняя облачность в баллах и высота нижней границы облаков в метрах; квадратными скобками обозначены формы облаков: Ci - перистые, Cs - перисто-слоистые, Cc - перисто-кучевые, Ac - высококучевые, As - высокослоистые, Sc - слоисто-кучевые, Ns - слоисто-дождевые, Cu - кучевые, Cb - кучево-дождевые. Подробнее классификацию облаков см. в Атласе облаков (PDF).
T - Температура воздуха - температура, измеренная на высоте 2 м над землей.
Td - Температура точки росы - температура, при понижении до которой содержащийся в воздухе водяной пар достигнет насыщения.
f - Относительная влажность воздуха - влажноcть воздуха, измеренная на высоте 2 м над землей.
Te - Эффективная температура - температура, которую ощущает одетый по сезону человек в тени. Характеристика душности погоды. При расчете учитывается влияние влажности воздуха и скорости ветра на теплоощущения человека.
Tes - Эффективная температура на солнце - температура, которую ощущает человек, с поправкой на солнечный нагрев. Характеристика знойности погоды. Зависит от высоты солнца над горизонтом, облачности и скорости ветра. Ночью, в пасмурную погоду, а также при ветре 12 м/с и более поправка равна нулю.
P - Атмосферное давление - приведенное к уровню моря атмосферное давление.
Po - Атмосферное давление - измеренное на уровне метеостанции атмосферное давление.
Tmin - Минимальная температура - минимум температуры воздуха на высоте 2 м над землей.
Tmax - Максимальная температура - максимум температуры воздуха на высоте 2 м над землей.
R - Количество осадков - Количество выпавших осадков за период времени, мм. При наведении курсора мыши на число - период времени, за который выпало указанное количество осадков.
R24 - Количество осадков - Количество выпавших осадков за 24 часа, мм.
S - Снежный покров - Высота снежного покрова, см. При наведении курсора мыши на число - состояние снежного покрова и степень покрытия местности в баллах.